This is the latest recevied weather packets stored in our database for station/object N5JXS. If no packets are shown the sender has not sent any weather packets the latest 10 day(s).
| Time | Temp. | Humidity | Pressure | Rain* | Wind** | Luminosity | Snow |
|---|---|---|---|---|---|---|---|
| 1777996257 | 0° C | 96% | 1016 hPa | 1.27 mm | - | 45 W/m² | - |
| 1777995953 | 0° C | 96% | 1016 hPa | 0 mm | - | 39 W/m² | - |
| 1777995649 | 0° C | 96% | 1016 hPa | 0 mm | - | 29 W/m² | - |
| 1777995347 | 0° C | 96% | 1016 hPa | 0 mm | - | 26 W/m² | - |
| 1777995044 | 0° C | 96% | 1016.1 hPa | 0 mm | - | 25 W/m² | - |
| 1777994741 | 0° C | 96% | 1016.1 hPa | 0 mm | - | 29 W/m² | - |
| 1777994436 | 0° C | 96% | 1016.4 hPa | 0 mm | - | 21 W/m² | - |
| 1777994131 | 0.56° C | 96% | 1016.3 hPa | 0 mm | - | 15 W/m² | - |
| 1777993829 | 0° C | 96% | 1016.1 hPa | 0 mm | - | 19 W/m² | - |
| 1777993525 | 0.56° C | 96% | 1015.9 hPa | 0 mm | - | 16 W/m² | - |
| 1777993221 | 0.56° C | 96% | 1016.1 hPa | 0 mm | - | 20 W/m² | - |
| 1777992918 | 0.56° C | 96% | 1016.1 hPa | 0 mm | - | 20 W/m² | - |
| 1777992616 | 0.56° C | 96% | 1016.1 hPa | 0 mm | - | 17 W/m² | - |
| 1777992314 | 0.56° C | 96% | 1016.3 hPa | 0 mm | - | 19 W/m² | - |
| 1777992011 | 0.56° C | 96% | 1016.1 hPa | 0 mm | - | 17 W/m² | - |
| 1777991709 | 0.56° C | 96% | 1016.4 hPa | 0 mm | - | 12 W/m² | - |
| 1777991405 | 0.56° C | 96% | 1016.5 hPa | 0 mm | - | 19 W/m² | - |
| 1777991102 | 0.56° C | 96% | 1016.4 hPa | 0 mm | - | 12 W/m² | - |
| 1777990799 | 0.56° C | 96% | 1016.6 hPa | 0 mm | - | 17 W/m² | - |
| 1777990496 | 0.56° C | 96% | 1016 hPa | 0 mm | - | 11 W/m² | - |
| 1777989890 | 0.56° C | 96% | 1016.5 hPa | 0 mm | - | 11 W/m² | - |
| 1777989587 | 1.11° C | 96% | 1016.4 hPa | 0 mm | - | 9 W/m² | - |
| 1777989283 | 1.11° C | 96% | 1016.3 hPa | 0 mm | - | 8 W/m² | - |
| 1777988980 | 1.67° C | 96% | 1016.1 hPa | 0 mm | - | 10 W/m² | - |
| 1777988676 | 1.67° C | 96% | 1016.3 hPa | 0 mm | - | 6 W/m² | - |
* Rain latest hour (hover to see other rain measurements)
** Current wind speed in m/s (hover to see current wind gust speed)